TimeAKST,TemperatureF,Dew PointF,Humidity,Sea Level PressureIn,VisibilityMPH,Wind Direction,Wind SpeedMPH,Gust SpeedMPH,PrecipitationIn,Events,Conditions,WindDirDegrees,DateUTC
12:26 AM,39.2,33.8,81,29.66,10.0,South,4.6,-,N/A,,Mostly Cloudy,170,2013-01-20 09:26:00
12:53 AM,39.0,34.0,82,29.67,10.0,Calm,Calm,-,N/A,,Overcast,0,2013-01-20 09:53:00
1:53 AM,39.0,34.0,82,29.70,10.0,Calm,Calm,-,N/A,,Overcast,0,2013-01-20 10:53:00
3:53 AM,37.9,35.1,89,29.73,10.0,ESE,10.4,-,0.00,Rain,Light Rain,120,2013-01-20 12:53:00
4:46 AM,37.4,33.8,87,29.72,10.0,SE,8.1,-,0.00,,Scattered Clouds,130,2013-01-20 13:46:00
4:53 AM,37.0,34.0,89,29.73,10.0,SE,10.4,-,0.00,,Scattered Clouds,130,2013-01-20 13:53:00
5:09 AM,37.4,33.8,87,29.72,10.0,SE,11.5,-,N/A,,Mostly Cloudy,130,2013-01-20 14:09:00
5:53 AM,37.9,34.0,86,29.73,10.0,SSE,6.9,-,N/A,,Overcast,150,2013-01-20 14:53:00
6:25 AM,35.6,33.8,93,29.74,10.0,Calm,Calm,-,N/A,,Mostly Cloudy,0,2013-01-20 15:25:00
6:53 AM,36.0,35.1,97,29.75,7.0,NE,3.5,-,N/A,,Overcast,50,2013-01-20 15:53:00
7:40 AM,35.6,33.8,93,29.74,7.0,East,5.8,-,0.00,,Overcast,90,2013-01-20 16:40:00
7:53 AM,36.0,35.1,97,29.74,9.0,ESE,6.9,-,0.00,Rain,Light Rain,110,2013-01-20 16:53:00
8:53 AM,34.0,33.1,96,29.75,10.0,Calm,Calm,-,0.00,,Scattered Clouds,0,2013-01-20 17:53:00
9:53 AM,34.0,33.1,96,29.76,9.0,SSE,3.5,-,N/A,,Mostly Cloudy,150,2013-01-20 18:53:00
10:53 AM,34.0,34.0,100,29.76,9.0,Calm,Calm,-,0.00,Rain,Light Rain,0,2013-01-20 19:53:00
11:53 AM,34.0,33.1,96,29.77,10.0,South,3.5,-,0.00,,Mostly Cloudy,170,2013-01-20 20:53:00
12:53 PM,34.0,34.0,100,29.77,9.0,Calm,Calm,-,N/A,,Mostly Cloudy,0,2013-01-20 21:53:00
1:53 PM,36.0,34.0,93,29.77,10.0,Calm,Calm,-,N/A,,Mostly Cloudy,0,2013-01-20 22:53:00
2:53 PM,37.0,35.1,93,29.77,9.0,Calm,Calm,-,N/A,,Mostly Cloudy,0,2013-01-20 23:53:00
3:53 PM,36.0,35.1,97,29.77,8.0,Calm,Calm,-,N/A,,Mostly Cloudy,0,2013-01-21 00:53:00
4:53 PM,36.0,35.1,97,29.78,5.0,ENE,4.6,-,N/A,,Overcast,60,2013-01-21 01:53:00
5:53 PM,36.0,34.0,93,29.77,8.0,NNE,4.6,-,N/A,,Overcast,30,2013-01-21 02:53:00
6:53 PM,34.0,33.1,96,29.78,8.0,Calm,Calm,-,N/A,,Overcast,0,2013-01-21 03:53:00
7:53 PM,34.0,33.1,96,29.79,7.0,Calm,Calm,-,N/A,,Overcast,0,2013-01-21 04:53:00
8:08 PM,33.8,33.8,100,29.78,7.0,Calm,Calm,-,N/A,,Overcast,0,2013-01-21 05:08:00
8:53 PM,34.0,33.1,96,29.79,8.0,Calm,Calm,-,N/A,,Overcast,0,2013-01-21 05:53:00
9:53 PM,35.1,34.0,96,29.79,7.0,Calm,Calm,-,N/A,,Overcast,0,2013-01-21 06:53:00
10:53 PM,34.0,33.1,96,29.78,7.0,Calm,Calm,-,N/A,,Overcast,0,2013-01-21 07:53:00
11:53 PM,34.0,33.1,96,29.78,8.0,Calm,Calm,-,N/A,,Overcast,0,2013-01-21 08:53:00